| time (UTC) | temp F | wind direction | speed knots | gust knots | rain 1hr in | rain 24hr in | rain mn in | humidity % | barometer mb |
| 20260508005004 | 42 | 352 | 0.0 | 0.9 | 0.00 | 0.00 | 0.00 | 87 | 1018.9 |
| 20260508001004 | 40 | 338 | 0.0 | 0.9 | 0.00 | 0.00 | 0.00 | 92 | 1019.0 |
| 20260507235004 | 41 | 335 | 0.0 | 0.9 | 0.00 | 0.00 | 0.00 | 92 | 1019.0 |
| 20260507232004 | 41 | 353 | 0.0 | 0.0 | 0.00 | 0.00 | 0.00 | 94 | 1019.0 |
| 20260507230005 | 39 | 350 | 0.0 | 0.0 | 0.00 | 0.00 | 0.00 | 97 | 1019.3 |
| 20260507223004 | 40 | 342 | 0.0 | 0.0 | 0.00 | 0.00 | 0.00 | 96 | 1019.6 |
| 20260507222004 | 40 | 3 | 0.0 | 0.0 | 0.00 | 0.00 | 0.00 | 96 | 1019.3 |
| 20260507220004 | 41 | 346 | 0.0 | 0.9 | 0.00 | 0.00 | 0.00 | 95 | 1019.3 |
| 20260507215004 | 41 | 348 | 0.0 | 0.9 | 0.00 | 0.00 | 0.00 | 95 | 1019.3 |
| 20260507211004 | 42 | 355 | 0.9 | 1.7 | 0.00 | 0.00 | 0.00 | 93 | 1019.3 |
| 20260507210008 | 42 | 336 | 0.9 | 2.6 | 0.00 | 0.00 | 0.00 | 92 | 1019.0 |
| 20260507205004 | 42 | 0 | 0.0 | 1.7 | 0.00 | 0.00 | 0.00 | 93 | 1019.3 |
| 20260507203004 | 42 | 349 | 0.0 | 0.0 | 0.00 | 0.00 | 0.00 | 93 | 1019.0 |
| 20260507202005 | 42 | 349 | 0.0 | 0.0 | 0.00 | 0.00 | 0.00 | 92 | 1019.0 |
| 20260507201004 | 43 | 346 | 0.0 | 0.0 | 0.00 | 0.00 | 0.00 | 90 | 1019.0 |
| 20260507195004 | 44 | 315 | 0.9 | 1.7 | 0.00 | 0.00 | 0.00 | 88 | 1018.6 |
| 20260507193004 | 44 | 341 | 0.0 | 0.0 | 0.00 | 0.00 | 0.00 | 89 | 1018.4 |
| 20260507192004 | 43 | 350 | 0.0 | 0.0 | 0.00 | 0.00 | 0.00 | 91 | 1018.3 |
| 20260507191004 | 44 | 351 | 0.0 | 0.0 | 0.00 | 0.00 | 0.00 | 88 | 1018.3 |
| 20260507190005 | 45 | 351 | 0.0 | 0.0 | 0.00 | 0.00 | 0.00 | 87 | 1018.3 |
| 20260507185004 | 46 | 350 | 0.0 | 0.0 | 0.00 | 0.00 | 0.00 | 85 | 1017.9 |
| 20260507184004 | 47 | 347 | 0.0 | 0.0 | 0.00 | 0.00 | 0.00 | 83 | 1017.9 |
| 20260507182004 | 49 | 341 | 0.0 | 0.0 | 0.00 | 0.00 | 0.00 | 80 | 1017.6 |
| 20260507181004 | 49 | 336 | 0.0 | 0.9 | 0.00 | 0.00 | 0.00 | 79 | 1017.3 |
| 20260507180004 | 50 | 333 | 0.9 | 1.7 | 0.00 | 0.00 | 0.00 | 77 | 1017.3 |
| 20260507175004 | 51 | 337 | 0.0 | 1.7 | 0.00 | 0.00 | 0.00 | 76 | 1016.9 |
| 20260507174004 | 51 | 241 | 1.7 | 1.7 | 0.00 | 0.00 | 0.00 | 76 | 1017.3 |
| 20260507173008 | 51 | 332 | 0.9 | 4.3 | 0.00 | 0.00 | 0.00 | 76 | 1016.9 |
| 20260507171004 | 51 | 339 | 0.9 | 2.6 | 0.00 | 0.00 | 0.00 | 76 | 1016.9 |
| 20260507170004 | 52 | 194 | 2.6 | 4.3 | 0.00 | 0.00 | 0.00 | 74 | 1016.9 |
| 20260507163004 | 53 | 192 | 2.6 | 4.3 | 0.00 | 0.00 | 0.00 | 71 | 1016.9 |
| 20260507162004 | 54 | 347 | 0.0 | 2.6 | 0.00 | 0.00 | 0.00 | 68 | 1017.3 |
| 20260507161004 | 55 | 14 | 0.0 | 1.7 | 0.00 | 0.00 | 0.00 | 67 | 1016.9 |
| 20260507160005 | 54 | 279 | 1.7 | 7.0 | 0.00 | 0.00 | 0.00 | 68 | 1016.9 |
| 20260507155004 | 55 | 195 | 4.3 | 7.0 | 0.00 | 0.00 | 0.00 | 64 | 1016.9 |
| 20260507154005 | 55 | 203 | 1.7 | 4.3 | 0.00 | 0.00 | 0.00 | 65 | 1016.9 |
| 20260507153004 | 55 | 324 | 0.9 | 5.2 | 0.00 | 0.00 | 0.00 | 66 | 1016.6 |
| 20260507152004 | 55 | 256 | 1.7 | 5.2 | 0.00 | 0.00 | 0.00 | 66 | 1016.6 |
| 20260507143004 | 58 | 166 | 0.9 | 5.2 | 0.00 | 0.00 | 0.00 | 60 | 1016.6 |
| 20260507142004 | 58 | 214 | 1.7 | 2.6 | 0.00 | 0.00 | 0.00 | 58 | 1016.6 |
| 20260507141004 | 57 | 335 | 0.0 | 2.6 | 0.00 | 0.00 | 0.00 | 62 | 1016.6 |
| 20260507140005 | 57 | 357 | 0.9 | 2.6 | 0.00 | 0.00 | 0.00 | 58 | 1016.6 |
| 20260507135004 | 58 | 320 | 0.9 | 7.8 | 0.00 | 0.00 | 0.00 | 57 | 1016.6 |
| 20260507134004 | 56 | 6 | 3.5 | 7.8 | 0.00 | 0.00 | 0.00 | 59 | 1016.6 |
| 20260507133005 | 60 | 358 | 2.6 | 8.7 | 0.00 | 0.00 | 0.00 | 56 | 1016.6 |
| 20260507132004 | 57 | 13 | 1.7 | 7.8 | 0.00 | 0.00 | 0.00 | 59 | 1016.6 |
| 20260507125004 | 58 | 127 | 1.7 | 5.2 | 0.00 | 0.00 | 0.00 | 64 | 1016.3 |
| 20260507123004 | 59 | 354 | 0.9 | 4.3 | 0.00 | 0.00 | 0.00 | 59 | 1016.3 |
| 20260507121004 | 56 | 349 | 1.7 | 4.3 | 0.00 | 0.00 | 0.00 | 66 | 1016.6 |
| 20260507120005 | 56 | 238 | 2.6 | 5.2 | 0.00 | 0.00 | 0.00 | 66 | 1016.3 |
| 20260507115004 | 57 | 205 | 1.7 | 7.8 | 0.00 | 0.00 | 0.00 | 64 | 1016.3 |
| 20260507113004 | 56 | 201 | 2.6 | 6.1 | 0.00 | 0.00 | 0.00 | 62 | 1016.6 |
| 20260507111004 | 57 | 226 | 8.7 | 12.2 | 0.00 | 0.00 | 0.00 | 62 | 1016.6 |
| 20260507110005 | 60 | 194 | 6.1 | 7.8 | 0.00 | 0.00 | 0.00 | 62 | 1016.6 |
| 20260507105004 | 57 | 327 | 1.7 | 4.3 | 0.00 | 0.00 | 0.00 | 62 | 1016.6 |
| 20260507103004 | 56 | 234 | 2.6 | 7.0 | 0.00 | 0.00 | 0.00 | 67 | 1016.6 |
| 20260507101004 | 53 | 334 | 1.7 | 4.3 | 0.00 | 0.00 | 0.00 | 71 | 1016.6 |
| 20260507100005 | 55 | 161 | 2.6 | 7.0 | 0.00 | 0.00 | 0.00 | 68 | 1016.7 |
| 20260507092004 | 56 | 177 | 4.3 | 7.0 | 0.00 | 0.00 | 0.00 | 67 | 1016.3 |
| 20260507091004 | 54 | 334 | 1.7 | 5.2 | 0.00 | 0.00 | 0.00 | 67 | 1016.3 |
| 20260507090005 | 56 | 183 | 2.6 | 5.2 | 0.00 | 0.00 | 0.00 | 68 | 1016.3 |
| 20260507085004 | 54 | 211 | 4.3 | 7.8 | 0.00 | 0.00 | 0.00 | 73 | 1016.3 |
| 20260507082004 | 53 | 7 | 1.7 | 4.3 | 0.00 | 0.00 | 0.00 | 76 | 1015.9 |
| 20260507080005 | 51 | 355 | 1.7 | 2.6 | 0.00 | 0.00 | 0.00 | 77 | 1015.6 |
| 20260507075004 | 51 | 174 | 1.7 | 4.3 | 0.00 | 0.00 | 0.00 | 80 | 1015.6 |
| 20260507074004 | 52 | 294 | 1.7 | 7.0 | 0.00 | 0.00 | 0.00 | 79 | 1015.6 |
| 20260507073004 | 51 | 168 | 6.1 | 7.8 | 0.00 | 0.00 | 0.00 | 80 | 1015.6 |
| 20260507072004 | 50 | 355 | 0.9 | 5.2 | 0.00 | 0.00 | 0.00 | 82 | 1015.6 |
| 20260507071004 | 49 | 184 | 1.7 | 7.0 | 0.00 | 0.00 | 0.00 | 84 | 1015.6 |
| 20260507070009 | 49 | 193 | 5.2 | 7.0 | 0.00 | 0.00 | 0.00 | 85 | 1015.6 |
| 20260507063008 | 47 | 234 | 1.7 | 5.2 | 0.00 | 0.00 | 0.00 | 87 | 1015.6 |
| 20260507061004 | 46 | 204 | 2.6 | 5.2 | 0.00 | 0.00 | 0.00 | 90 | 1015.6 |
| 20260507060004 | 45 | 207 | 0.0 | 2.6 | 0.00 | 0.00 | 0.00 | 91 | 1015.6 |
| 20260507053005 | 46 | 294 | 0.9 | 5.2 | 0.00 | 0.00 | 0.00 | 92 | 1015.0 |
| 20260507050005 | 44 | 332 | 1.7 | 5.2 | 0.00 | 0.00 | 0.00 | 93 | 1014.6 |
| 20260507044004 | 44 | 306 | 2.6 | 4.3 | 0.00 | 0.00 | 0.00 | 94 | 1014.6 |
| 20260507043004 | 44 | 307 | 1.7 | 1.7 | 0.00 | 0.00 | 0.00 | 94 | 1014.6 |
| 20260507041004 | 44 | 334 | 1.7 | 5.2 | 0.00 | 0.00 | 0.00 | 94 | 1014.2 |
| 20260507034004 | 44 | 233 | 1.7 | 5.2 | 0.00 | 0.01 | 0.00 | 96 | 1013.9 |
| 20260507033004 | 44 | 275 | 1.7 | 5.2 | 0.00 | 0.01 | 0.00 | 96 | 1013.9 |
| 20260507025004 | 45 | 331 | 0.9 | 2.6 | 0.00 | 0.01 | 0.00 | 95 | 1013.5 |
| 20260507024004 | 45 | 271 | 1.7 | 2.6 | 0.00 | 0.01 | 0.00 | 95 | 1013.9 |
| 20260507023004 | 45 | 242 | 0.9 | 4.3 | 0.00 | 0.01 | 0.00 | 95 | 1013.5 |
| 20260507022004 | 46 | 188 | 0.9 | 5.2 | 0.00 | 0.01 | 0.00 | 95 | 1013.5 |
| 20260507014004 | 46 | 299 | 1.7 | 4.3 | 0.00 | 0.01 | 0.00 | 95 | 1013.5 |
| 20260507013004 | 46 | 216 | 1.7 | 2.6 | 0.00 | 0.01 | 0.00 | 95 | 1013.5 |
| 20260507012004 | 47 | 304 | 0.9 | 2.6 | 0.00 | 0.01 | 0.00 | 95 | 1013.5 |
| 20260507011004 | 47 | 192 | 1.7 | 4.3 | 0.00 | 0.01 | 0.00 | 95 | 1013.2 |
| 20260507010005 | 47 | 332 | 1.7 | 4.3 | 0.00 | 0.01 | 0.00 | 95 | 1013.2 |